Change the Weather History Date:

Thursday, January 22, 2015

  Actual Average Record
Temperature  
Mean Temperature 71 °F 66 °F  
Max Temperature 79 °F 75 °F 88 °F (1926)
Min Temperature 63 °F 57 °F 28 °F (1985)
Degree Days  
Heating Degree Days 0 3  
Month to date heating degree days 3 66  
Since 1 July heating degree days 45 137  
Cooling Degree Days 6 3  
Month to date cooling degree days 152 73  
Year to date cooling degree days 152 73  
Growing Degree Days 21 (Base 50)    
Moisture  
Dew Point 62 °F    
Average Humidity 75    
Maximum Humidity 93    
Minimum Humidity 56    
Precipitation  
Precipitation 0.00 in 0.10 in 6.30 in (1998)
Month to date precipitation 1.00 2.29  
Year to date precipitation 1.00 2.29  
Snow  
Snow 0.00 in - - ()
Month to date snowfall 0.0  
Since 1 July snowfall 0.0  
Snow Depth 0.00 in    
Sea Level Pressure  
Sea Level Pressure 30.14 in    
Wind  
Wind Speed 10 mph (East)    
Max Wind Speed 21 mph    
Max Gust Speed 24 mph    
Visibility 10 miles    
Events      
T = Trace of Precipitation, MM = Missing Value Source: NWS Daily Summary

Daily Weather History Graph

Daily Weather History Graph

Search for Another Location

Airport or City:

Trip Planner

Search our weather history database for the weather conditions in past years. The results will help you decide how hot, cold, wet, or windy it might be!

Date:

Astronomy

Jan. 22, 2015 Rise Set
Actual Time 7:09 AM EST 5:54 PM EST
Civil Twilight 6:44 AM EST 6:19 PM EST
Nautical Twilight 6:16 AM EST 6:47 PM EST
Astronomical Twilight 5:48 AM EST 7:15 PM EST
Moon 8:36 AM EST (1/22) 8:33 PM EST (1/22)
Length of Visible Light 11h 34m
Length of Day
10h 45m
Waxing Crescent, 7% of the Moon is Illuminated
Jan 22
Waxing Crescent
Jan 26
First Quarter
Feb 3
Full
Feb 11
Last Quarter
Feb 18
New

Hourly Weather History & Observations

Time (EST) Temp. Dew Point Humidity Pressure Visibility Wind Dir Wind Speed Gust Speed Precip Events Conditions
12:53 AM 72.0 °F 62.1 °F 71% 30.09 in 10.0 mi ESE 6.9 mph - N/A   Scattered Clouds
1:53 AM 71.1 °F 62.1 °F 73% 30.08 in 10.0 mi East 6.9 mph - N/A   Scattered Clouds
2:53 AM 71.1 °F 62.1 °F 73% 30.08 in 10.0 mi East 3.5 mph - N/A   Scattered Clouds
3:53 AM 64.0 °F 60.1 °F 87% 30.09 in 10.0 mi Calm Calm - N/A   Scattered Clouds
4:53 AM 64.0 °F 61.0 °F 90% 30.09 in 10.0 mi NW 3.5 mph - N/A   Scattered Clouds
5:53 AM 63.0 °F 60.1 °F 90% 30.12 in 10.0 mi NW 3.5 mph - N/A   Scattered Clouds
6:53 AM 64.9 °F 61.0 °F 87% 30.14 in 10.0 mi Calm Calm - N/A   Mostly Cloudy
7:53 AM 68.0 °F 62.1 °F 81% 30.15 in 10.0 mi Calm Calm - N/A   Scattered Clouds
8:53 AM 75.9 °F 62.1 °F 62% 30.17 in 10.0 mi East 10.4 mph - N/A   Scattered Clouds
9:53 AM 77.0 °F 62.1 °F 60% 30.19 in 10.0 mi East 10.4 mph - N/A   Scattered Clouds
10:53 AM 79.0 °F 62.1 °F 56% 30.19 in 10.0 mi ESE 12.7 mph - N/A   Scattered Clouds
11:53 AM 78.1 °F 63.0 °F 60% 30.17 in 10.0 mi East 11.5 mph - N/A   Scattered Clouds
12:53 PM 78.1 °F 63.0 °F 60% 30.14 in 10.0 mi ESE 12.7 mph - N/A   Mostly Cloudy
1:53 PM 78.1 °F 63.0 °F 60% 30.13 in 10.0 mi ENE 11.5 mph - N/A   Scattered Clouds
2:53 PM 79.0 °F 63.0 °F 58% 30.13 in 10.0 mi ESE 13.8 mph - N/A   Scattered Clouds
3:53 PM 77.0 °F 62.1 °F 60% 30.13 in 10.0 mi East 11.5 mph - N/A   Scattered Clouds
4:53 PM 77.0 °F 61.0 °F 58% 30.13 in 10.0 mi East 12.7 mph - N/A   Scattered Clouds
5:53 PM 75.0 °F 61.0 °F 62% 30.14 in 10.0 mi East 13.8 mph - N/A   Scattered Clouds
6:53 PM 75.0 °F 63.0 °F 66% 30.15 in 10.0 mi East 13.8 mph - N/A   Mostly Cloudy
7:53 PM 73.9 °F 63.0 °F 68% 30.15 in 10.0 mi East 16.1 mph - N/A   Scattered Clouds
8:53 PM 73.9 °F 63.0 °F 68% 30.16 in 10.0 mi East 15.0 mph - N/A   Scattered Clouds
9:53 PM 73.9 °F 63.0 °F 68% 30.15 in 10.0 mi ESE 16.1 mph - N/A   Scattered Clouds
10:53 PM 73.9 °F 62.1 °F 66% 30.16 in 10.0 mi ESE 16.1 mph - N/A   Mostly Cloudy
11:53 PM 73.9 °F 62.1 °F 66% 30.14 in 10.0 mi East 17.3 mph - N/A   Mostly Cloudy